This demonstration page uses our WeatherBlox Daily Observations layout. Learn more.

Hourly Observations for April 29, 2019

Temp ( °F °C ) Dew Point ( °F °C ) Humidity (%) Winds ( mph kmh ) Pressure ( in mb ) Visibility ( mi km ) Precip ( " mm )
12:54 am 00:54 Clear 50 10 40 4.4 68 68 SE 10 17 29.77 1008 10 16.0934 0 0
1:54 am 01:54 Cloudy 50 10 42 5.6 74 74 N 10 17 29.82 1010 10 16.0934 0 0
2:25 am 02:25 Cloudy 49 9.4 41 5 74 74 N 16 26 29.85 1011 10 16.0934 0 0
2:54 am 02:54 Cloudy 48 8.9 41 5 77 77 N 13 20 29.86 1011 10 16.0934 0 0
3:54 am 03:54 Cloudy 48 8.9 41 5 77 77 N 9 15 29.83 1010 10 16.0934 0 0
4:39 am 04:39 Cloudy with Light Rain 48 8.9 42 5.6 80 80 N 10 17 29.89 1012 10 16.0934 0 0.0254
4:54 am 04:54 Cloudy 47 8.3 42 5.6 83 83 N 10 17 29.87 1012 10 16.0934 0 0.0254
5:54 am 05:54 Cloudy 48 8.9 42 5.6 80 80 NNW 10 17 29.92 1013 10 16.0934 0 0
6:54 am 06:54 Cloudy 48 8.9 42 5.6 80 80 NNW 9 15 29.97 1015 10 16.0934 0 0
7:54 am 07:54 Partly Cloudy 50 10 41 5 71 71 NNW 25 41 30 1016 10 16.0934 0 0
8:54 am 08:54 Mostly Sunny 51 10.6 34 1.1 52 52 NNW 20 31 30.03 1017 10 16.0934 0 0
9:54 am 09:54 Sunny 52 11.1 31 -0.6 45 45 NNW 25 41 30.04 1017 10 16.0934 0 0
10:54 am 10:54 Sunny 55 12.8 30 -1.1 38 38 NNW 26 43 30.06 1018 10 16.0934 0 0
11:54 am 11:54 Sunny 57 13.9 31 -0.6 37 37 NNW 18 30 30.09 1019 10 16.0934 0 0
12:54 pm 12:54 Sunny 60 15.6 32 0 35 35 NNW 17 28 30.08 1019 10 16.0934 0 0
1:54 pm 13:54 Sunny 59 15 30 -1.1 33 33 NNW 20 31 30.08 1019 10 16.0934 0 0
2:54 pm 14:54 Sunny 61 16.1 31 -0.6 32 32 NNW 14 22 30.1 1019 10 16.0934 0 0
3:54 pm 15:54 Sunny 63 17.2 33 0.6 33 33 NNW 15 24 30.09 1019 10 16.0934 0 0
4:54 pm 16:54 Sunny 60 15.6 33 0.6 36 36 N 18 30 30.08 1019 10 16.0934 0 0
5:54 pm 17:54 Cloudy 58 14.4 33 0.6 39 39 N 15 24 30.11 1020 10 16.0934 0 0
6:54 pm 18:54 Mostly Sunny 57 13.9 35 1.7 44 44 NNE 12 19 30.13 1020 10 16.0934 0 0
7:54 pm 19:54 Cloudy 56 13.3 34 1.1 44 44 N 13 20 30.14 1021 10 16.0934 0 0
8:54 pm 20:54 Cloudy 54 12.2 34 1.1 47 47 NNE 9 15 30.14 1021 10 16.0934 0 0
9:54 pm 21:54 Cloudy 52 11.1 34 1.1 50 50 NNE 14 22 30.16 1021 10 16.0934 0 0
11:54 pm 23:54 Cloudy with Light Rain 48 8.9 39 3.9 71 71 N 10 17 30.17 1022 10 16.0934 0 0.0254

Powered by AerisWeather